Find Starlink 3794

NORAD ID: 52631 Int'l Des: 2022-052 Owner: SPXS Country: US Constellation: starlink operational
LEOCIRCULAR

Live-Position

3D-Globus wird geladen...

Über Starlink 3794

Beschreibung wird geladen...

Nächste Überflüge

Passes for default location (London). Set your location on the main map for personalized predictions.

Höhenverlauf

Loading altitude history...

Zweizeiliger Elementsatz

1 52631U 22052AK 26104.28012163 -.00000068 00000-0 13836-4 0 9994
2 52631 53.2157 109.3580 0001191 82.4486 277.6641 15.08839943216374
Epoch: 14. Apr. 2026 • Age: 18 hours

Aktueller Status

Höhe 539.9 km
Geschwindigkeit 7.59 km/s
Subsatellitenpunkt 7.09°N, 62.95°E
Startdatum 14. Mai 2022
Alter 3.9 years
Typ internet

Technische Details

Klassifizierung Payload
Masse 297.00 kg
Trockenmasse 275.00 kg
Gesamtmasse 297.00 kg
Länge 0.20 m
Durchmesser 2.80 m
Spannweite 9.00 m
Form Box + pan
Hersteller SPXS
Bus-Typ Starlink
Phasenstatus In Orbit
Besitzer/Staat SPXS/US

Most Searched